Location: Newark
(45.5000°N, 11.4167°E)
Time: 06:44:24
(UTC+00:00)

Vanguard 1 Rocket - All Passes

Search period start: 22 August 2019 00:00
Search period end: 01 September 2019 00:00
Orbit: 652 x 4224 km, 34.3° (Epoch: 20 August)

Date Brightness Start Highest point End Pass type
(mag) Time Alt. Az. Time Alt. Az. Time Alt. Az.
22 Aug - 02:53:44 10° SW 02:57:54 28° SSE 03:03:50 10° ESE visible
22 Aug - 05:16:59 10° WSW 05:22:34 30° S 05:31:40 10° SE daylight
22 Aug - 07:42:40 10° WSW 07:48:38 17° SSW 07:56:58 10° S daylight
23 Aug - 01:43:58 10° SSW 01:47:20 20° SSE 01:51:24 10° ESE visible
23 Aug - 04:06:43 10° WSW 04:11:29 30° S 04:18:50 10° SE daylight
23 Aug - 06:31:07 10° WSW 06:36:50 21° SSW 06:45:25 10° SSE daylight
24 Aug - 00:34:45 10° S 00:36:50 13° SSE 00:39:00 10° SE visible
24 Aug - 02:56:37 10° SW 03:00:40 27° S 03:06:20 10° ESE visible
24 Aug - 05:20:18 10° WSW 05:25:24 24° SSW 05:33:12 10° SE daylight
24 Aug - 07:48:17 10° SW 07:51:26 12° SSW 07:55:07 10° S daylight
25 Aug - 01:46:36 10° SW 01:50:04 22° SSE 01:54:14 10° ESE visible
25 Aug - 04:09:52 10° WSW 04:14:18 26° S 04:20:52 10° SE daylight
25 Aug - 06:35:14 10° SW 06:39:40 15° SSW 06:45:35 10° S daylight
26 Aug - 00:36:45 10° SSW 00:39:32 16° SSE 00:42:24 10° SE visible
26 Aug - 02:59:35 10° SW 03:03:29 25° S 03:08:44 10° SE visible
26 Aug - 05:23:53 10° WSW 05:28:15 19° SSW 05:34:22 10° SSE daylight
26 Aug - 23:27:38 10° S 23:28:54 11° SSE 23:30:10 10° SE night (unlit)
27 Aug - 01:49:21 10° SW 01:52:50 23° S 01:56:57 10° ESE visible
27 Aug - 04:13:09 10° WSW 04:17:09 21° S 04:22:41 10° SE daylight
28 Aug - 00:39:07 10° SW 00:42:17 19° S 00:45:30 10° ESE visible
28 Aug - 03:02:41 10° SW 03:06:19 22° S 03:11:01 10° SE visible
28 Aug - 05:28:08 10° SW 05:31:07 13° SSW 05:34:47 10° S daylight
28 Aug - 23:28:55 10° SSW 23:31:40 15° SSE 23:34:11 10° SE night (unlit)
29 Aug - 01:52:13 10° SW 01:55:39 22° S 01:59:35 10° SE visible
29 Aug - 04:16:46 10° SW 04:20:00 16° SSW 04:24:08 10° SSE daylight
29 Aug - 22:19:15 10° S 22:20:54 11° SSE 22:22:25 10° SE night (unlit)
30 Aug - 00:41:40 10° SW 00:45:04 20° S 00:48:27 10° SE visible
30 Aug - 03:05:55 10° SW 03:09:09 18° S 03:13:06 10° SSE visible
30 Aug - 23:30:57 10° SW 23:34:28 18° S 23:37:33 10° SE night (unlit)
31 Aug - 01:55:12 10° SW 01:58:28 20° S 02:02:06 10° SE visible
31 Aug - 04:21:17 10° SW 04:22:51 11° SSW 04:24:34 10° S daylight
31 Aug - 22:20:10 10° SSW 22:23:43 16° SSE 22:26:39 10° SE night (unlit)
